This demonstration page uses our WeatherBlox Daily Observations layout. Learn more.

Left ArrowRight Arrow

39.01783, -85.05884

Hourly Observations for May 19, 2015

Temp ( °F °C ) Dew Point ( °F °C ) Humidity (%) Winds ( mph kmh ) Pressure ( in mb ) Visibility ( mi km ) Precip ( " mm )
12:52 am 00:52 Mostly Clear with Mist and Fog 67 19.4 65 18.3 93 93 SW 5 7 30.06 1018 5 8 0.00 0.00
1:52 am 01:52 Partly Cloudy with Mist and Fog 67 19.4 65 18.3 93 93 SW 5 7 30.05 1018 5 8 0.00 0.00
2:35 am 02:35 Mostly Cloudy with Mist and Fog 66 19 64 18 94 94 WSW 5 7 30.03 1017 4 6 0.00 0.00
2:52 am 02:52 Mostly Cloudy with Mist and Fog 66 18.9 65 18.3 96 96 W 5 7 30.04 1017 3 4 0.00 0.00
3:13 am 03:13 Mostly Cloudy with Mist and Fog 66 19 64 18 94 94 W 5 7 30.03 1017 3 4 0.00 0.00
3:27 am 03:27 Partly Cloudy with Mist and Fog 64 18 64 18 100 100 WNW 8 13 30.06 1018 4 6 0.00 0.00
3:52 am 03:52 Mostly Cloudy 66 18.9 63 17.2 90 90 WNW 8 13 30.05 1018 9 14 0.00 0.00
4:29 am 04:29 Mostly Clear 63 17 55 13 77 77 NNW 8 13 30.09 1019 10 16 0.00 0.00
4:52 am 04:52 Mostly Clear 61 16.1 53 11.7 75 75 NNW 7 11 30.06 1018 10 16 0.00 0.00
5:52 am 05:52 Clear 59 15 50 10 72 72 NW 7 11 30.07 1018 10 16 0.00 0.00
6:52 am 06:52 Mostly Sunny 57 13.9 48 8.9 72 72 NNW 10 17 30.09 1019 10 16 0.00 0.00
7:52 am 07:52 Sunny 57 13.9 46 7.8 67 67 NW 12 19 30.11 1020 10 16 0.00 0.00
8:52 am 08:52 Sunny 58 14.4 44 6.7 60 60 NNW 13 20 30.12 1020 10 16 0.00 0.00
9:52 am 09:52 Sunny 60 15.6 45 7.2 58 58 NNW 10 17 30.12 1020 10 16 0.00 0.00
10:52 am 10:52 Sunny 61 16.1 46 7.8 58 58 NW 8 13 30.13 1020 10 16 0.00 0.00
11:52 am 11:52 Mostly Sunny 64 17.8 48 8.9 56 56 WNW 8 13 30.13 1020 10 16 0.00 0.00
12:52 pm 12:52 Mostly Sunny 66 18.9 47 8.3 50 50 NW 9 15 30.12 1020 10 16 0.00 0.00
1:52 pm 13:52 Mostly Sunny 68 20 48 8.9 49 49 NW 13 20 30.13 1020 10 16 0.00 0.00
2:52 pm 14:52 Mostly Sunny 69 20.6 50 10 51 51 VRB 5 7 30.10 1019 10 16 0.00 0.00
3:52 pm 15:52 Mostly Sunny 69 20.6 49 9.4 49 49 WNW 10 17 30.09 1019 10 16 0.00 0.00
4:52 pm 16:52 Partly Cloudy 69 20.6 48 8.9 47 47 NNW 10 17 30.09 1019 10 16 0.00 0.00
5:52 pm 17:52 Mostly Sunny 69 20.6 48 8.9 47 47 WNW 7 11 30.09 1019 10 16 0.00 0.00
6:52 pm 18:52 Mostly Sunny 67 19.4 47 8.3 49 49 NNW 10 17 30.09 1019 10 16 0.00 0.00
7:52 pm 19:52 Sunny 65 18.3 46 7.8 51 51 N 9 15 30.10 1019 10 16 0.00 0.00
8:52 pm 20:52 Mostly Clear 62 16.7 46 7.8 56 56 NNW 8 13 30.11 1020 10 16 0.00 0.00
9:52 pm 21:52 Clear 58 14.4 46 7.8 65 65 N 10 17 30.11 1020 10 16 0.00 0.00
10:52 pm 22:52 Clear 57 13.9 44 6.7 62 62 N 12 19 30.12 1020 10 16 0.00 0.00
11:52 pm 23:52 Clear 54 12.2 43 6.1 67 67 N 14 22 30.12 1020 10 16 0.00 0.00

Powered by AerisWeather